SWA1128 KTYS-KDCA

Flight info

Callsign SWA1128
Flight time 0h 58m
Altitude 35000
Route DCT VXV DCT SITTR TRUPS5
Aircraft B738/M-SDE2E3FGHIRWXY/LB1

Departure

Time 2026-05-05 17:05
Airport McGhee Tyson Airport (KTYS)

Arrival

Time 2026-05-05 18:03
Airport Ronald Reagan Washington National Airport (KDCA)
Time Latitude Longitude Altitude Speed Heading
2026-05-05 16:50 35.80726 -83.99110 960 ft 0 kts 134°
2026-05-05 16:54 35.80734 -83.99121 957 ft 2 kts 132°
2026-05-05 16:55 35.80743 -83.99134 958 ft 2 kts 129°
2026-05-05 16:55 35.80753 -83.99150 959 ft 2 kts 123°
2026-05-05 16:55 35.80761 -83.99167 960 ft 2 kts 111°
2026-05-05 16:55 35.80765 -83.99186 956 ft 2 kts 82°
2026-05-05 16:56 35.80759 -83.99205 956 ft 2 kts 52°
2026-05-05 16:56 35.80756 -83.99210 955 ft 0 kts 49°
2026-05-05 16:57 35.80770 -83.99190 956 ft 7 kts 46°
2026-05-05 16:57 35.80823 -83.99125 959 ft 14 kts 44°
2026-05-05 16:57 35.80916 -83.99051 959 ft 18 kts 19°
2026-05-05 16:57 35.81028 -83.98986 964 ft 18 kts 33°
2026-05-05 16:58 35.81115 -83.98883 963 ft 17 kts 44°
2026-05-05 16:58 35.81197 -83.98783 964 ft 16 kts 45°
2026-05-05 16:58 35.81276 -83.98686 961 ft 16 kts 45°
2026-05-05 16:58 35.81357 -83.98587 966 ft 18 kts 45°
2026-05-05 16:59 35.81449 -83.98477 967 ft 18 kts 45°
2026-05-05 16:59 35.81537 -83.98368 968 ft 18 kts 44°
2026-05-05 16:59 35.81604 -83.98293 972 ft 0 kts 34°
2026-05-05 16:59 35.81617 -83.98281 972 ft 5 kts 36°
2026-05-05 17:00 35.81651 -83.98257 975 ft 6 kts 30°
2026-05-05 17:00 35.81688 -83.98234 975 ft 5 kts
2026-05-05 17:04 35.81704 -83.98236 986 ft 8 kts 345°
2026-05-05 17:04 35.81704 -83.98335 975 ft 17 kts 222°
2026-05-05 17:04 35.81467 -83.98625 966 ft 87 kts 224°
2026-05-05 17:05 35.80867 -83.99362 962 ft 154 kts 225°
2026-05-05 17:05 35.80011 -84.00395 1428 ft 183 kts 224°
2026-05-05 17:05 35.79129 -84.01615 2210 ft 195 kts 244°
2026-05-05 17:05 35.78943 -84.03219 3614 ft 191 kts 271°
2026-05-05 17:06 35.79326 -84.04872 4214 ft 216 kts 301°
2026-05-05 17:06 35.80512 -84.06119 4524 ft 244 kts 333°
2026-05-05 17:06 35.82262 -84.06573 4897 ft 272 kts 359°
2026-05-05 17:06 35.84088 -84.05901 5706 ft 282 kts 32°
2026-05-05 17:07 35.85396 -84.04110 6564 ft 287 kts 62°
2026-05-05 17:07 35.86198 -84.01822 7276 ft 293 kts 68°
2026-05-05 17:07 35.86921 -83.99451 7989 ft 297 kts 69°
2026-05-05 17:07 35.87689 -83.97061 8685 ft 302 kts 66°
2026-05-05 17:08 35.88539 -83.94663 9423 ft 308 kts 65°
2026-05-05 17:08 35.89445 -83.92243 10192 ft 312 kts 64°
2026-05-05 17:08 35.90417 -83.89775 10513 ft 330 kts 59°
2026-05-05 17:08 35.91815 -83.87420 10691 ft 350 kts 48°
2026-05-05 17:09 35.93458 -83.85076 10843 ft 372 kts 46°
2026-05-05 17:09 35.95210 -83.82643 11229 ft 384 kts 46°
2026-05-05 17:09 35.96993 -83.80168 11864 ft 387 kts 46°
2026-05-05 17:09 35.98785 -83.77666 12565 ft 390 kts 46°
2026-05-05 17:10 36.00562 -83.75167 13208 ft 394 kts 46°
2026-05-05 17:10 36.02372 -83.72609 13828 ft 398 kts 46°
2026-05-05 17:10 36.04194 -83.70021 14408 ft 401 kts 46°
2026-05-05 17:10 36.06028 -83.67409 15036 ft 403 kts 46°
2026-05-05 17:11 36.07866 -83.64784 15642 ft 405 kts 46°
2026-05-05 17:11 36.09718 -83.62137 16238 ft 409 kts 46°
2026-05-05 17:11 36.11585 -83.59469 16864 ft 411 kts 45°
2026-05-05 17:11 36.13460 -83.56782 17470 ft 413 kts 45°
2026-05-05 17:12 36.15341 -83.54085 18054 ft 416 kts 45°
2026-05-05 17:12 36.17236 -83.51367 18592 ft 419 kts 45°
2026-05-05 17:12 36.19150 -83.48620 19079 ft 422 kts 45°
2026-05-05 17:12 36.21047 -83.45895 19532 ft 425 kts 45°
2026-05-05 17:13 36.22981 -83.43115 19979 ft 428 kts 46°
2026-05-05 17:13 36.24933 -83.40305 20429 ft 431 kts 46°
2026-05-05 17:13 36.26892 -83.37485 20884 ft 434 kts 46°
2026-05-05 17:13 36.28870 -83.34632 21306 ft 437 kts 46°
2026-05-05 17:14 36.30860 -83.31762 21724 ft 440 kts 46°
2026-05-05 17:14 36.32862 -83.28872 22135 ft 443 kts 46°
2026-05-05 17:14 36.34875 -83.25961 22556 ft 446 kts 46°
2026-05-05 17:14 36.36903 -83.23028 22958 ft 449 kts 46°
2026-05-05 17:15 36.38945 -83.20071 23350 ft 452 kts 46°
2026-05-05 17:15 36.40999 -83.17095 23741 ft 455 kts 46°
2026-05-05 17:15 36.43067 -83.14096 24078 ft 457 kts 46°
2026-05-05 17:15 36.45139 -83.11088 24400 ft 459 kts 46°
2026-05-05 17:16 36.47221 -83.08064 24708 ft 463 kts 46°
2026-05-05 17:16 36.49317 -83.05015 25014 ft 465 kts 46°
2026-05-05 17:16 36.51426 -83.01945 25361 ft 467 kts 46°
2026-05-05 17:16 36.53513 -82.98905 25672 ft 469 kts 46°
2026-05-05 17:17 36.55634 -82.95813 25969 ft 471 kts 45°
2026-05-05 17:17 36.57766 -82.92701 26252 ft 473 kts 45°
2026-05-05 17:17 36.59903 -82.89580 26537 ft 476 kts 45°
2026-05-05 17:17 36.62060 -82.86425 26816 ft 478 kts 45°
2026-05-05 17:18 36.63487 -82.84337 26998 ft 479 kts 45°
2026-05-05 17:18 36.65656 -82.81160 27280 ft 482 kts 45°
2026-05-05 17:18 36.67832 -82.77970 27531 ft 484 kts 45°
2026-05-05 17:18 36.70019 -82.74761 27772 ft 487 kts 45°
2026-05-05 17:19 36.72218 -82.71533 28041 ft 489 kts 45°
2026-05-05 17:19 36.74422 -82.68291 28315 ft 491 kts 45°
2026-05-05 17:19 36.76634 -82.65036 28557 ft 493 kts 45°
2026-05-05 17:19 36.79575 -82.60703 28912 ft 495 kts 45°
2026-05-05 17:20 36.81081 -82.58481 29176 ft 494 kts 45°
2026-05-05 17:20 36.83305 -82.55197 29508 ft 495 kts 45°
2026-05-05 17:20 36.85528 -82.51911 29813 ft 495 kts 45°
2026-05-05 17:20 36.87723 -82.48664 30112 ft 495 kts 45°
2026-05-05 17:21 36.89944 -82.45375 30386 ft 496 kts 44°
2026-05-05 17:21 36.92170 -82.42076 30705 ft 495 kts 44°
2026-05-05 17:21 36.94386 -82.38788 31052 ft 494 kts 44°
2026-05-05 17:22 36.98805 -82.32223 31561 ft 494 kts 44°
2026-05-05 17:22 37.01017 -82.28933 31793 ft 494 kts 44°
2026-05-05 17:22 37.03223 -82.25647 32147 ft 491 kts 43°
2026-05-05 17:22 37.05419 -82.22372 32440 ft 490 kts 43°
2026-05-05 17:23 37.07614 -82.19096 32678 ft 490 kts 43°
2026-05-05 17:23 37.09807 -82.15822 32902 ft 491 kts 43°
2026-05-05 17:23 37.11993 -82.12554 33182 ft 490 kts 43°
2026-05-05 17:23 37.14183 -82.09277 33459 ft 489 kts 43°
2026-05-05 17:24 37.16335 -82.06052 33697 ft 489 kts 42°
2026-05-05 17:24 37.18512 -82.02787 33971 ft 487 kts 42°
2026-05-05 17:24 37.20686 -81.99523 34208 ft 486 kts 42°
2026-05-05 17:24 37.22853 -81.96267 34377 ft 486 kts 42°
2026-05-05 17:25 37.25017 -81.93012 34559 ft 487 kts 43°
2026-05-05 17:25 37.26482 -81.90808 34679 ft 487 kts 42°
2026-05-05 17:25 37.29353 -81.86484 34936 ft 486 kts 42°
2026-05-05 17:26 37.33687 -81.79943 35019 ft 488 kts 42°
2026-05-05 17:26 37.38024 -81.73392 34991 ft 486 kts 42°
2026-05-05 17:27 37.42340 -81.66846 34968 ft 485 kts 42°
2026-05-05 17:27 37.46637 -81.60319 34977 ft 484 kts 43°
2026-05-05 17:28 37.50936 -81.53780 34992 ft 484 kts 42°
2026-05-05 17:28 37.55222 -81.47249 34990 ft 484 kts 42°
2026-05-05 17:29 37.59480 -81.40744 35001 ft 484 kts 43°
2026-05-05 17:29 37.63764 -81.34187 35028 ft 484 kts 42°
2026-05-05 17:30 37.68055 -81.27606 35034 ft 486 kts 43°
2026-05-05 17:30 37.72349 -81.21008 35050 ft 486 kts 43°
2026-05-05 17:31 37.76643 -81.14396 35049 ft 486 kts 43°
2026-05-05 17:31 37.78646 -81.10920 35021 ft 497 kts 56°
2026-05-05 17:31 37.80132 -81.06953 35073 ft 501 kts 60°
2026-05-05 17:32 37.82858 -80.98819 35048 ft 501 kts 60°
2026-05-05 17:32 37.85647 -80.90755 35007 ft 500 kts 59°
2026-05-05 17:33 37.88493 -80.82746 34997 ft 498 kts 59°
2026-05-05 17:33 37.91335 -80.74767 34996 ft 497 kts 59°
2026-05-05 17:34 37.94172 -80.66791 35005 ft 496 kts 59°
2026-05-05 17:34 37.96980 -80.58869 35030 ft 495 kts 59°
2026-05-05 17:35 37.99799 -80.50895 35032 ft 495 kts 59°
2026-05-05 17:35 38.02605 -80.42929 35032 ft 495 kts 59°
2026-05-05 17:36 38.05415 -80.34935 35017 ft 495 kts 59°
2026-05-05 17:36 38.08202 -80.26986 35017 ft 496 kts 60°
2026-05-05 17:37 38.11021 -80.18999 35004 ft 495 kts 59°
2026-05-05 17:37 38.13866 -80.11013 35019 ft 496 kts 59°
2026-05-05 17:38 38.16699 -80.03032 35019 ft 496 kts 59°
2026-05-05 17:38 38.19528 -79.95025 35022 ft 496 kts 59°
2026-05-05 17:39 38.22348 -79.87017 34840 ft 496 kts 57°
2026-05-05 17:39 38.25151 -79.79043 34408 ft 501 kts 58°
2026-05-05 17:39 38.26589 -79.74945 33860 ft 500 kts 58°
2026-05-05 17:40 38.28000 -79.70903 33220 ft 500 kts 59°
2026-05-05 17:40 38.29382 -79.66906 32711 ft 496 kts 60°
2026-05-05 17:40 38.30753 -79.62906 32313 ft 491 kts 60°
2026-05-05 17:40 38.32110 -79.58941 31865 ft 486 kts 61°
2026-05-05 17:41 38.33455 -79.55013 31447 ft 482 kts 62°
2026-05-05 17:41 38.34791 -79.51115 31025 ft 477 kts 62°
2026-05-05 17:41 38.36109 -79.47266 30614 ft 473 kts 63°
2026-05-05 17:41 38.37419 -79.43439 30204 ft 469 kts 63°
2026-05-05 17:42 38.38716 -79.39643 29751 ft 465 kts 64°
2026-05-05 17:42 38.40000 -79.35882 29320 ft 460 kts 64°
2026-05-05 17:42 38.41265 -79.32166 28904 ft 454 kts 64°
2026-05-05 17:42 38.42483 -79.28470 28488 ft 450 kts 69°
2026-05-05 17:43 38.43297 -79.24635 28225 ft 444 kts 76°
2026-05-05 17:43 38.43919 -79.20805 27954 ft 438 kts 77°
2026-05-05 17:43 38.44515 -79.16975 27704 ft 443 kts 77°
2026-05-05 17:43 38.45141 -79.13122 27402 ft 442 kts 76°
2026-05-05 17:44 38.45792 -79.09316 27011 ft 438 kts 76°
2026-05-05 17:44 38.46455 -79.05533 26591 ft 434 kts 76°
2026-05-05 17:44 38.47105 -79.01843 26206 ft 430 kts 76°
2026-05-05 17:44 38.47753 -78.98138 25836 ft 426 kts 76°
2026-05-05 17:45 38.48395 -78.94453 25434 ft 424 kts 76°
2026-05-05 17:45 38.49031 -78.90793 25029 ft 421 kts 76°
2026-05-05 17:45 38.49661 -78.87161 24631 ft 418 kts 77°
2026-05-05 17:45 38.50279 -78.83540 24228 ft 416 kts 77°
2026-05-05 17:46 38.50856 -78.79931 23843 ft 414 kts 78°
2026-05-05 17:46 38.51414 -78.76331 23407 ft 412 kts 78°
2026-05-05 17:46 38.51972 -78.72731 22930 ft 411 kts 78°
2026-05-05 17:46 38.52529 -78.69164 22495 ft 408 kts 78°
2026-05-05 17:47 38.53084 -78.65628 22052 ft 405 kts 78°
2026-05-05 17:47 38.53641 -78.62113 21661 ft 401 kts 78°
2026-05-05 17:47 38.54191 -78.58669 21281 ft 399 kts 78°
2026-05-05 17:47 38.54751 -78.55166 20872 ft 397 kts 78°
2026-05-05 17:48 38.55295 -78.51758 20480 ft 395 kts 78°
2026-05-05 17:48 38.55839 -78.48333 20088 ft 393 kts 78°
2026-05-05 17:48 38.56380 -78.44923 19701 ft 391 kts 78°
2026-05-05 17:48 38.56917 -78.41524 19303 ft 390 kts 78°
2026-05-05 17:49 38.57462 -78.38128 18897 ft 389 kts 77°
2026-05-05 17:49 38.58047 -78.34749 18471 ft 389 kts 77°
2026-05-05 17:49 38.58641 -78.31396 18053 ft 387 kts 77°
2026-05-05 17:49 38.59232 -78.28034 17641 ft 385 kts 77°
2026-05-05 17:50 38.59816 -78.24716 17225 ft 382 kts 76°
2026-05-05 17:50 38.60656 -78.21492 16835 ft 380 kts 67°
2026-05-05 17:50 38.61696 -78.18448 16465 ft 377 kts 65°
2026-05-05 17:50 38.62764 -78.15398 16113 ft 375 kts 66°
2026-05-05 17:51 38.63793 -78.12334 15732 ft 374 kts 66°
2026-05-05 17:51 38.64795 -78.09263 15355 ft 373 kts 67°
2026-05-05 17:51 38.65784 -78.06188 14945 ft 373 kts 67°
2026-05-05 17:51 38.66766 -78.03123 14559 ft 372 kts 67°
2026-05-05 17:52 38.67749 -78.00057 14183 ft 372 kts 68°
2026-05-05 17:52 38.68729 -77.96999 13811 ft 371 kts 68°
2026-05-05 17:52 38.69709 -77.93940 13402 ft 371 kts 68°
2026-05-05 17:52 38.70676 -77.90919 13209 ft 363 kts 68°
2026-05-05 17:53 38.71627 -77.87946 13030 ft 356 kts 68°
2026-05-05 17:53 38.72553 -77.85048 12865 ft 349 kts 68°
2026-05-05 17:53 38.73583 -77.82267 12641 ft 343 kts 54°
2026-05-05 17:53 38.75103 -77.79929 12344 ft 340 kts 45°
2026-05-05 17:54 38.76711 -77.77717 12054 ft 339 kts 45°
2026-05-05 17:54 38.78290 -77.75521 11727 ft 338 kts 45°
2026-05-05 17:54 38.79865 -77.73280 11427 ft 338 kts 46°
2026-05-05 17:54 38.81427 -77.71035 11110 ft 337 kts 46°
2026-05-05 17:55 38.82972 -77.68782 10780 ft 337 kts 47°
2026-05-05 17:55 38.84508 -77.66481 10409 ft 339 kts 48°
2026-05-05 17:55 38.86041 -77.64163 10043 ft 341 kts 48°
2026-05-05 17:55 38.87571 -77.61849 9902 ft 334 kts 48°
2026-05-05 17:56 38.89052 -77.59610 9784 ft 326 kts 48°
2026-05-05 17:56 38.90490 -77.57442 9585 ft 321 kts 48°
2026-05-05 17:56 38.91935 -77.55264 9348 ft 318 kts 48°
2026-05-05 17:56 38.93365 -77.53109 9070 ft 316 kts 48°
2026-05-05 17:57 38.94661 -77.50845 8780 ft 315 kts 64°
2026-05-05 17:57 38.95534 -77.48283 8523 ft 312 kts 69°
2026-05-05 17:57 38.96353 -77.45716 8236 ft 311 kts 69°
2026-05-05 17:57 38.97179 -77.43150 7978 ft 309 kts 69°
2026-05-05 17:58 38.98011 -77.40611 7776 ft 307 kts 69°
2026-05-05 17:58 38.98845 -77.38095 7484 ft 306 kts 68°
2026-05-05 17:58 38.99683 -77.35578 7270 ft 304 kts 68°
2026-05-05 17:58 39.00511 -77.33094 7050 ft 302 kts 68°
2026-05-05 17:59 39.01340 -77.30622 6789 ft 301 kts 68°
2026-05-05 17:59 39.02168 -77.28157 6532 ft 298 kts 69°
2026-05-05 17:59 39.02655 -77.25623 6314 ft 288 kts 95°
2026-05-05 17:59 39.02283 -77.23238 6190 ft 269 kts 120°
2026-05-05 18:00 39.01334 -77.21281 6078 ft 249 kts 140°
2026-05-05 18:00 39.00120 -77.19747 5890 ft 243 kts 144°
2026-05-05 18:00 38.98896 -77.18280 5745 ft 236 kts 144°
2026-05-05 18:00 38.97740 -77.16872 5680 ft 223 kts 143°
2026-05-05 18:01 38.96643 -77.15494 5431 ft 219 kts 143°
2026-05-05 18:01 38.95526 -77.14195 5153 ft 213 kts 146°
2026-05-05 18:01 38.94413 -77.12965 4833 ft 210 kts 146°
2026-05-05 18:01 38.93298 -77.11755 4254 ft 214 kts 149°
2026-05-05 18:02 38.92012 -77.10649 3421 ft 228 kts 154°
2026-05-05 18:02 38.90783 -77.09279 2647 ft 247 kts 123°
2026-05-05 18:02 38.90144 -77.07288 2440 ft 233 kts 119°
2026-05-05 18:02 38.89200 -77.05723 2050 ft 215 kts 145°
2026-05-05 18:03 38.88066 -77.04533 1233 ft 217 kts 150°
2026-05-05 18:03 38.86654 -77.03848 321 ft 222 kts 180°
2026-05-05 18:03 38.85182 -77.03781 19 ft 188 kts 175°
2026-05-05 18:03 38.84479 -77.03712 19 ft 48 kts 185°
2026-05-05 18:04 38.84391 -77.03856 23 ft 5 kts 264°
2026-05-05 18:04 38.84390 -77.03857 23 ft 0 kts 264°
2026-05-05 18:05 38.84390 -77.03861 23 ft 1 kts 264°
2026-05-05 18:05 38.84380 -77.04062 23 ft 19 kts 268°
2026-05-05 18:06 38.84475 -77.04127 28 ft 21 kts 352°
2026-05-05 18:06 38.84526 -77.04137 27 ft 24 kts 351°
2026-05-05 18:06 38.84653 -77.04208 25 ft 0 kts 330°